Location: Bziskhevi
(42.2160°N, 43.6329°E)
Time: 11:55:10
(UTC+00:00)

Daily predictions for brighter satellites

Satellite Brightness Start Highest point End
(mag) Time Altitude Azimuth Time Altitude Azimuth Time Altitude Azimuth
Cosmos 2082 Rocket 3.8 16:40:49 10° SE 16:43:37 14° E 16:46:25 10° ENE
MONITOR-E 4.5 16:44:28 10° SE 16:46:37 30° ENE 16:48:46 10° N
Sich 1 4.4 16:45:47 10° SE 16:49:04 21° E 16:52:22 10° NE
Cosmos 1862 4.2 16:47:05 10° SSE 16:50:38 30° E 16:54:13 10° NNE
USA 234 4.5 16:46:21 10° E 16:52:01 33° NNE 16:57:42 10° NW
Shenzhou-11 Module 1.4 16:50:59 10° W 16:53:21 74° N 16:55:42 10° E
SJ-6B 2.9 16:49:25 10° SSE 16:53:29 80° ENE 16:57:32 10° N
Ariane Rocket 3.2 16:51:36 10° S 16:56:40 78° WSW 17:01:45 10° NNW
Cosmos 1500 Rocket 3.5 16:54:28 10° S 16:58:45 74° E 17:03:05 10° NNE
ARGOS 3.9 16:54:19 10° S 16:59:35 57° W 17:04:54 10° NNW
Cosmos 1992 Rocket 4.0 16:55:35 10° NNW 17:00:51 84° ENE 17:06:04 10° SSE
Cosmos 407 Rocket 4.3 16:58:00 10° SSE 17:02:33 30° E 17:07:06 10° NE
CZ-2C R/B 2.5 16:57:55 10° NNE 17:03:07 80° ESE 17:08:19 10° S
Resurs 1-3 3.8 16:59:31 10° SSE 17:03:46 52° ENE 17:08:03 10° N
Cosmos 2218 Rocket 4.3 17:01:36 10° SSW 17:07:46 74° W 17:13:55 10° N
SL-8 R/B 3.9 17:03:44 10° WNW 17:08:34 72° NNE 17:12:54 13° ESE
USA 186 3.6 17:13:23 10° SSW 17:15:11 20° W 17:16:59 10° NW
H-2A R/B 3.9 17:10:40 10° SSW 17:15:12 30° W 17:19:40 10° NW
FREGAT/IRIS 4.4 17:17:28 10° SSW 17:19:46 27° W 17:22:05 10° NW
Cosmos 1980 Rocket 3.7 17:15:21 10° N 17:19:48 23° NE 17:23:33 12° E
Cosmos 1805 Rocket 3.6 17:17:29 10° S 17:21:50 63° E 17:26:15 10° NNE
Cosmos 1782 3.8 17:19:09 10° NNW 17:23:01 47° W 17:26:53 10° SSW
DMSP B5D2-2 4.5 17:20:28 10° N 17:25:40 68° WNW 17:30:51 10° SSW
Cosmos 1140 Rocket 4.0 17:23:44 10° S 17:28:32 38° ESE 17:33:23 10° NE
ATLAS 5 CENTAUR R/B 2.4 17:22:59 10° NW 17:28:49 83° NE 17:34:12 17° SE
CENTAUR R/B 4.2 17:30:36 12° E 17:30:36 12° E 17:31:58 10° E
Cosmos 1833 Rocket 2.6 17:28:28 10° S 17:33:59 65° ESE 17:39:35 10° NNE
SL-4 R/B 1.8 17:30:14 10° SW 17:34:14 61° SE 17:37:56 10° ENE
Cosmos 1697 Rocket 3.0 17:30:32 10° NNW 17:36:00 51° ENE 17:39:35 21° SE
OE (NEXTSAT) 4.4 17:33:39 10° WNW 17:37:09 72° NNE 17:39:02 25° E
SPOT 3 Rocket 3.8 17:33:58 10° S 17:39:10 73° WSW 17:44:23 10° NNW
Cosmos 1727 Rocket 4.4 17:33:05 10° NNW 17:39:23 67° W 17:45:39 10° S
Cosmos 2228 Rocket 3.9 17:37:11 10° NNW 17:41:29 51° W 17:45:43 10° SSW
Cosmos 1867 4.1 17:37:29 10° S 17:42:24 37° ESE 17:47:22 10° NE
Cosmos 1633 Rocket 3.5 17:41:02 21° SSE 17:43:32 42° E 17:47:43 10° NNE
Cosmos 1656 3.8 17:42:25 10° NNW 17:47:54 73° WSW 17:52:03 18° SSE
Cosmos 389 Rocket 2.8 17:44:48 10° NNW 17:48:13 63° W 17:50:29 19° S
Cosmos 1812 2.8 17:45:02 10° N 17:48:52 77° W 17:51:28 20° S
Cosmos 1934 Rocket 4.1 17:47:28 13° S 17:53:08 60° E 17:59:24 10° NNE
Resurs 01 Rocket 1.8 17:49:57 16° S 17:53:24 69° WSW 17:57:50 10° NNW
Landsat 7 4.0 17:51:13 27° SE 17:53:35 53° ENE 17:58:14 10° N
NOSS 3-2 (A) 3.8 17:50:02 12° S 17:54:36 36° ESE 18:00:10 10° NE
Cosmos 1707 Rocket 3.4 17:51:57 10° N 17:56:19 79° E 17:58:34 28° SSE
Cosmos 676 Rocket 4.4 17:53:41 21° SSE 17:56:50 43° ESE 18:01:52 10° NNE
Cosmos 220 Rocket 4.0 17:52:57 10° NNW 17:57:10 74° WSW 17:59:24 27° S
Aureole 1 Rocket 4.4 17:51:26 10° S 17:57:44 58° ESE 18:05:33 10° NNE
Intercosmos 25 3.6 17:55:49 10° NNW 18:00:02 62° W 18:01:53 24° SSW
USA 267 3.5 17:53:59 10° NE 18:00:31 72° NW 18:07:00 10° WSW
NOSS 3-2 (C) 4.4 18:01:11 23° E 18:01:11 23° E 18:05:21 10° ENE
Cosmos 1441 Rocket 4.3 17:58:34 10° SSW 18:02:13 45° WNW 18:05:52 10° N
Cosmos 2360 4.3 17:57:03 10° NNW 18:02:45 64° ENE 18:05:31 31° SE
FALCON 9 DEB 3.0 18:01:16 10° SW 18:04:45 81° SE 18:08:15 10° NE
Cosmos 1470 Rocket 4.0 18:05:17 37° ESE 18:06:07 41° E 18:10:15 10° NNE
IGS 5A 3.4 18:04:39 38° SSE 18:06:09 72° ENE 18:10:17 10° N
Cosmos 1821 Rocket 4.3 18:00:13 10° SSW 18:06:16 66° W 18:12:28 10° N
deb Kosmos-1763 4.0 18:06:14 49° SSE 18:06:55 60° ESE 18:10:30 10° NNE
SL-24 R/B - RUBIN 2 4.5 18:04:39 10° NNW 18:11:20 77° NE 18:14:19 33° SE
COSMOS 2406 4.3 18:06:14 10° SW 18:11:45 46° WNW 18:17:16 10° NNE
Meteor 2-20 Rocket 4.5 18:07:11 10° N 18:13:21 67° E 18:16:19 32° SSE
GP-B 3.0 18:09:51 10° N 18:14:18 71° E 18:15:46 41° SSE
ERS-1 Rocket 3.3 18:16:08 37° ESE 18:17:38 49° ENE 18:22:28 10° N
SL-16 R/B 3.9 18:14:13 10° N 18:18:24 21° NE 18:20:35 17° E
Cosmos 921 Rocket 3.8 18:17:04 10° N 18:20:57 34° ENE 18:21:16 34° ENE
Cosmos 1862 Rocket 3.5 18:18:23 10° N 18:22:52 73° E 18:23:52 52° SSE
Cosmos 2369 3.8 18:17:53 10° NNW 18:23:38 76° WSW 18:26:08 35° S
Lacrosse 5 3.7 18:19:58 10° NNW 18:24:03 24° NNE 18:27:12 14° ENE
Cosmos 2082 Rocket 2.2 18:21:12 10° SSW 18:26:54 81° WNW 18:32:38 10° NNE
Shenzhou-11 Module 4.2 18:25:04 10° W 18:25:46 17° W 18:25:46 17° W
Cosmos 1818 4.0 18:24:23 10° NW 18:29:44 56° WSW 18:31:46 35° S
Cosmos 2123 Rocket 4.0 18:23:47 10° N 18:30:01 79° W 18:33:24 29° S
Cosmos 1954 Rocket 3.9 18:26:42 22° SSW 18:30:11 85° ESE 18:35:33 10° NNE
Cosmos 2278 3.6 18:27:14 10° NNW 18:32:59 86° ENE 18:34:49 45° SSE
Spot 2 Rocket 3.8 18:31:13 33° S 18:33:26 64° WSW 18:38:31 10° NNW
SAR-Lupe-2 4.0 18:30:26 10° NNE 18:33:17 50° NE 18:33:17 50° NE
USA 234 3.3 18:31:25 35° ESE 18:34:26 78° NE 18:41:00 10° NW
Cosmos 1605 Rocket 3.8 18:36:30 31° S 18:39:39 88° E 18:45:47 10° N
Cosmos 2322 Rocket 3.6 18:36:24 10° N 18:41:02 25° NE 18:42:37 22° ENE
Terra 2.0 18:42:15 51° E 18:42:41 53° ENE 18:47:19 10° N
CARTOSAT-1 3.4 18:42:57 74° SSE 18:43:21 88° ENE 18:47:41 10° NNW
ATLAS 3B R/B 4.4 18:46:48 15° ENE 18:46:48 15° ENE 18:48:25 10° ENE
Meteor 1-20 Rocket 4.2 18:41:21 33° S 18:44:07 87° WNW 18:50:00 10° N
Cosmos 1933 Rocket 3.4 18:47:09 80° SE 18:47:17 81° E 18:51:44 10° N
Cosmos 1238 Rocket 3.7 18:49:10 33° N 18:49:10 33° N 18:50:58 10° N
Meteor 1-4 Rocket 3.7 18:44:55 10° NNW 18:48:05 34° W 18:48:15 33° W
Cosmos 1184 Rocket 3.9 18:48:07 40° WNW 18:48:08 40° WNW 18:51:17 10° N
USA 238 DEB 3.5 18:43:35 10° SSW 18:50:11 86° ESE 18:57:05 10° NE
USA 238 3.5 18:43:42 10° SSW 18:50:17 85° SE 18:57:11 10° NE
Cosmos 2173 Rocket 4.4 18:52:00 40° E 18:52:24 41° E 18:58:05 10° NNE
Cosmos 2360 Rocket 4.0 18:51:14 10° N 18:55:06 18° NE 18:56:50 16° ENE
Cosmos 1602 4.0 18:56:27 63° N 18:56:27 63° N 18:59:49 10° N
Okean 1 3.6 18:52:16 10° N 18:55:47 64° NNE 18:55:47 64° NNE
SPOT 5 2.5 18:56:40 79° WSW 18:56:46 80° WSW 19:01:06 10° NNW
Meteor 1-19 Rocket 4.0 18:53:49 10° N 18:59:15 72° E 18:59:51 65° ESE
SPOT 1/Viking Rocket 4.4 18:59:15 33° SW 19:00:57 44° W 19:05:58 10° NNW
Iridium 4 Rocket 4.3 19:02:12 30° NE 19:02:12 30° NE 19:04:58 10° NNE
Cosmos 1437 Rocket 3.8 18:57:24 10° N 19:00:03 38° NNE 19:00:03 38° NNE
Cosmos 1980 Rocket 2.4 18:58:38 10° NNW 19:04:13 60° WSW 19:05:19 50° SSW
Meteor 1-14 Rocket 4.2 19:04:20 61° S 19:05:25 81° E 19:11:22 10° NNE
Cosmos 2242 Rocket 3.7 19:05:47 10° NNW 19:09:59 70° WNW 19:09:59 70° WNW
Cosmos 1703 Rocket 3.8 19:06:09 10° N 19:09:56 65° N 19:09:56 65° N
Cosmos 1763 Rocket 3.6 19:05:39 10° NNW 19:10:57 63° ENE 19:11:07 63° ENE
ATLAS 5 CENTAUR R/B 4.4 19:08:57 10° WNW 19:13:08 19° WSW 19:15:44 15° SW
Cosmos 405 Rocket 3.8 19:14:15 40° NW 19:14:15 40° NW 19:17:14 10° N
SL-4 R/B 3.7 19:10:35 10° W 19:13:59 29° NNW 19:15:57 18° NNE
Cosmos 1459 Rocket 4.0 19:13:36 59° ESE 19:14:07 61° E 19:20:21 10° NNE
Genesis I 4.5 19:13:11 10° NW 19:15:51 37° WNW 19:15:51 37° WNW
CENTAUR R/B 2.3 19:17:41 59° SSW 19:18:55 82° ESE 19:25:49 10° NE
Cosmos 1697 Rocket 4.4 19:15:16 10° NW 19:19:34 23° WSW 19:21:19 20° SW
NOSS 3-3 (A) 4.5 19:17:06 10° NW 19:24:45 86° SW 19:26:54 55° SSE
NOSS 3-3 (C) 4.5 19:17:12 10° NW 19:24:52 87° SW 19:27:01 55° SSE
Meteor 1-18 Rocket 4.4 19:21:13 10° NNW 19:26:42 59° W 19:27:21 55° SW
Cosmos 1802 Rocket 4.0 19:29:04 64° ESE 19:29:22 65° E 19:35:41 10° NNE
Okean 1-7 3.8 19:28:12 10° NNW 19:31:38 50° NW 19:31:38 50° NW
Cosmos 1850 Rocket 4.2 19:34:03 64° W 19:34:27 67° WNW 19:39:44 10° NNE
Meteor 2-4 Rocket 3.6 19:31:12 10° N 19:36:49 87° NNW 19:36:49 87° NNW
Thor Agena Rocket 4.5 19:32:26 10° NNE 19:35:50 36° NE 19:35:50 36° NE
Cosmos 2346 Rocket 4.5 19:36:42 10° N 19:42:37 62° ENE 19:42:37 62° ENE
Cosmos 44 4.1 19:40:26 10° NNW 19:44:45 45° NE 19:44:45 45° NE
NOSS 3-2 (C) 3.8 19:48:31 35° WSW 19:50:53 58° NW 19:57:18 10° NNE
Cosmos 841 Rocket 3.9 19:57:36 10° NNW 20:01:56 62° NNW 20:01:56 62° NNW
SL-16 R/B 2.4 19:57:24 10° NNW 20:02:26 63° WNW 20:02:26 63° WNW
Cosmos 540 Rocket 3.9 19:59:23 10° NNW 20:03:34 59° NNW 20:03:34 59° NNW
Lacrosse 5 2.6 20:02:34 10° NW 20:06:22 51° NW 20:06:22 51° NW
Tsikada Rocket 4.0 20:03:56 10° N 20:10:05 73° ENE 20:10:05 73° ENE
Cosmos 2219 Rocket 3.7 20:09:35 10° N 20:14:21 27° NE 20:14:57 26° ENE
USA 234 4.4 20:18:46 29° WSW 20:18:46 29° WSW 20:23:26 10° WNW
Cosmos 2237 4.4 20:13:38 10° NNW 20:18:35 66° N 20:18:35 66° N
Terra 4.0 20:21:08 16° W 20:21:08 16° W 20:23:45 10° NW
Cosmos 2322 Rocket 2.8 20:19:52 10° NNW 20:24:25 48° WNW 20:24:25 48° WNW
Meteor 1-11 Rocket 4.1 20:26:40 58° NW 20:26:40 58° NW 20:31:52 10° N
ATLAS 3B R/B 2.5 20:34:00 80° NW 20:34:00 80° NW 20:40:37 10° NNE
Cosmos 2360 Rocket 2.7 20:34:05 10° NNW 20:38:35 57° NW 20:38:35 57° NW
COSMOS 2428 3.8 20:35:17 10° N 20:40:35 37° ENE 20:40:38 37° ENE
Cosmos 1725 Rocket 4.5 20:42:39 51° W 20:42:48 51° WNW 20:48:57 10° N
ALOS 2 4.3 20:50:20 30° NNW 20:50:20 30° NNW 20:52:39 10° NNW
Cosmos 2333 Rocket 2.7 20:54:23 10° NNW 20:59:21 57° NNE 20:59:21 57° NNE
Cosmos 2237 Rocket 4.0 20:59:52 10° N 21:04:21 24° NE 21:05:45 21° ENE
Lacrosse 4 Rocket 3.5 21:09:06 25° N 21:09:06 25° N 21:11:01 10° NNE
CENTAUR R/B 4.5 21:05:18 10° W 21:10:31 26° NNW 21:16:27 10° NNE
Cosmos 968 Rocket 4.4 21:19:01 44° NNW 21:19:01 44° NNW 21:22:43 10° NNE
Resurs 1-4 Rocket 4.3 21:24:51 10° NE 21:27:17 15° E 21:27:17 15° E
Cosmos 1464 Rocket 4.1 21:30:54 74° N 21:30:54 74° N 21:36:32 10° N
Cosmos 2227 Rocket 3.6 21:40:53 29° E 21:40:53 29° E 21:44:36 10° NE
Helios 1B rocket 4.4 21:43:34 10° NNE 21:45:30 27° NNE 21:45:30 27° NNE
Nadezhda 4 Rocket 4.0 21:47:39 10° N 21:53:31 78° N 21:53:31 78° N
Cosmos 2219 Rocket 3.3 21:53:05 10° NW 21:56:38 35° WNW 21:56:38 35° WNW
Cosmos 2034 Rocket 4.0 21:59:08 72° NW 21:59:08 72° NW 22:05:03 10° N
SL-16 R/B 3.5 22:01:09 34° ESE 22:02:56 41° ENE 22:08:44 10° N
Okean 2 Rocket 4.5 22:08:00 36° N 22:08:00 36° N 22:10:44 10° N
Cosmos 1092 Rocket 4.0 22:01:53 10° N 22:08:07 74° E 22:08:07 74° E
ADEOS II 4.3 22:08:50 10° NE 22:11:49 15° E 22:12:36 15° E
GEOS 3 Rocket 3.9 22:07:34 10° NE 22:12:12 65° NE 22:12:12 65° NE
CZ-2D R/B 3.1 22:08:42 10° NNE 22:13:35 40° E 22:13:35 40° E
SL-16 R/B 3.8 22:09:34 10° N 22:14:34 30° NE 22:17:55 17° ESE
Okean 1 Rocket 4.4 22:22:26 36° NE 22:22:26 36° NE 22:25:21 10° NNE
SL-19 R/B 4.3 22:18:11 10° NNE 22:23:50 82° NNE 22:23:50 82° NNE
COSMOS 2428 4.2 22:19:40 10° NW 22:22:37 26° WNW 22:22:37 26° WNW
Cosmos 2297 Rocket 2.2 22:34:20 76° NNW 22:34:20 76° NNW 22:39:41 10° NNE
Meteor 2-5 Rocket 4.4 22:28:46 10° N 22:34:13 48° ENE 22:35:11 43° ESE
USA 215 3.8 22:28:35 10° ENE 22:34:43 41° SE 22:34:48 41° SE
Cosmos 2219 3.3 22:37:35 64° NW 22:37:35 64° NW 22:42:56 10° NNE
Meteor 2-13 Rocket 4.3 22:32:51 10° NNW 22:38:49 73° W 22:38:49 73° W
Cosmos 1980 4.1 22:33:38 10° NNW 22:38:05 51° WNW 22:38:05 51° WNW
SJ 16-02 2.5 22:41:00 39° ENE 22:41:00 39° ENE 22:44:18 10° NNE
DNEPR-1 R/B 4.2 22:34:31 10° NNW 22:40:13 63° NE 22:40:29 61° ENE
Cosmos 2333 Rocket 4.3 22:39:54 10° WNW 22:41:18 15° WNW 22:41:18 15° WNW
Cosmos 1461 4.4 22:45:43 33° E 22:45:43 33° E 22:48:46 10° NE
UNK 4.1 22:46:05 63° NNE 22:46:05 63° NNE 22:50:06 10° N
Cosmos 1626 4.0 22:42:40 10° NNE 22:45:12 28° NE 22:45:12 28° NE
Cosmos 2237 Rocket 2.7 22:43:16 10° NNW 22:47:32 46° WNW 22:47:32 46° WNW
Cosmos 1455 Rocket 4.4 22:54:05 32° E 22:54:15 32° E 22:58:11 10° NNE
AQUA 4.1 22:49:42 10° NNE 22:54:11 61° E 22:54:11 61° E
Cosmos 1766 4.5 22:57:04 40° N 22:57:04 40° N 22:59:38 10° N
Cosmos 2180 Rocket 4.5 23:00:29 58° SSE 23:01:39 74° E 23:07:47 10° N
NOSS 3-1 (C) 3.6 23:02:20 47° SE 23:02:46 48° ESE 23:08:35 10° NE
Cosmos 2279 Rocket 3.8 23:04:12 67° SSW 23:05:03 82° W 23:11:17 10° N
Cosmos 1892 Rocket 4.2 23:01:02 10° N 23:05:23 51° E 23:05:39 50° E
Resurs 1-4 Rocket 2.1 23:02:58 10° N 23:08:13 67° WNW 23:08:21 66° W
Cosmos 2026 Rocket 4.2 23:02:47 10° NNW 23:08:39 50° W 23:08:43 50° W
Cosmos 2112 Rocket 4.5 23:05:16 10° NNW 23:10:25 56° ENE 23:12:39 32° SE
Cosmos 1470 3.9 23:11:45 37° E 23:11:45 37° E 23:15:23 10° NNE
Cosmos 1634 Rocket 4.4 23:12:14 43° W 23:12:48 45° WNW 23:18:44 10° N
Cosmos 1937 Rocket 4.3 23:11:54 39° SE 23:12:58 43° ESE 23:17:59 10° NNE
CBERS-1 4.1 23:13:06 10° NNE 23:18:13 69° ESE 23:19:01 58° SSE
Cosmos 1898 Rocket 3.5 23:19:30 61° SSE 23:20:13 71° ESE 23:25:26 10° NNE
Cosmos 2227 Rocket 2.9 23:22:42 37° W 23:23:35 39° WNW 23:28:53 10° N
ARIANE 5 R/B 3.7 23:19:54 10° NNE 23:24:44 37° E 23:27:00 25° SE
Cosmos 990 Rocket 3.8 23:25:01 68° S 23:25:42 85° ESE 23:30:55 10° NNE
Cosmos 1680 Rocket 3.3 23:22:22 10° NNW 23:27:38 87° WSW 23:28:50 55° SSE
Cosmos 1607 3.9 23:26:34 10° NW 23:33:01 75° WSW 23:37:47 19° SSE
SL-14 R/B 3.8 23:31:57 10° NNW 23:35:00 49° NW 23:35:00 49° NW
USA 229 DEB 3.6 23:34:39 45° SSW 23:36:50 75° ESE 23:43:39 10° NE
USA 229 3.6 23:34:45 44° SSW 23:36:55 75° ESE 23:43:41 10° NE
IDEFIX/ARIANE 42P 3.9 23:35:28 10° NNE 23:40:09 33° E 23:43:34 16° SSE
Cosmos 1544 Rocket 3.7 23:40:04 56° SSE 23:40:54 73° E 23:45:22 10° NNE
CZ-4B R/B 3.4 23:37:39 10° N 23:42:20 59° WNW 23:42:55 54° WSW
IRS-1D 3.5 23:38:30 10° N 23:43:33 68° WNW 23:44:38 52° SW
Cosmos 2082 4.2 23:44:06 38° W 23:45:26 45° WNW 23:50:49 10° NNE
Cosmos 1726 3.1 23:45:03 35° SE 23:45:52 40° E 23:49:21 10° NNE
SL-16 R/B 3.2 23:46:15 33° WSW 23:46:34 34° W 23:52:11 10° NNW
NOSS 2-3 (C) 3.9 23:46:55 47° SSE 23:47:42 55° ESE 23:52:21 10° NE
NOSS 3-1 (A) 3.4 23:46:16 40° S 23:48:07 63° ESE 23:54:11 10° NE
Cosmos 158 Rocket 4.1 23:46:02 10° NNW 23:51:16 54° WSW 23:52:23 46° SW
ADEOS II 2.1 23:46:45 10° N 23:51:59 68° WNW 23:53:31 45° SW
SL-23 DEB 4.3 23:46:37 10° WNW 23:53:17 61° SW 23:57:11 10° SE
CZ-2D R/B 3.3 23:49:04 10° N 23:53:43 29° WNW 23:54:54 26° W
Cosmos 1758 3.2 23:54:46 66° SW 23:55:14 77° W 23:59:16 10° N
